RH
32 26 22 28 39 31 21 16 11 9 8 8 6 6 7 8 9 12 13 10 8 6 6 7 7 6 6 4 3 3 3 2 2 4 5 6 9 19 20 26 74 81 57
30 25 27 42 43 25 20 13 10 9 8 8 5 6 8 8 11 12 11 8 7 6 6 6 6 6 5 4 3 3 3 2 2 3 4 5 8 14 20 22 56 84 59
28 22 30 40 37 23 16 11 10 9 8 6 5 7 8 11 13 11 8 7 6 6 6 5 6 6 5 4 3 2 3 2 2 2 3 5 6 12 22 22 48 81 72
24 24 31 40 27 21 13 10 9 9 7 5 7 8 11 12 10 7 6 6 6 6 5 4 5 5 5 4 3 2 2 2 2 2 3 5 6 9 23 33 32 25 55
21 27 40 44 28 15 10 9 9 8 5 6 7 9 11 9 7 7 6 5 5 6 5 4 4 4 5 4 3 2 2 2 2 2 4 5 6 10 23 37 28 46 62
24 27 31 29 23 11 10 10 8 6 5 6 8 10 8 8 8 6 4 4 4 4 4 4 4 4 5 4 3 3 2 2 2 3 4 5 6 9 13 28 37 44 45
30 32 34 24 14 10 10 9 7 5 6 7 11 8 8 8 6 6 4 4 4 4 4 4 4 4 5 5 3 3 2 2 2 4 4 5 6 8 13 43 65 66 75
31 27 25 20 11 11 10 9 5 6 7 11 9 9 9 7 5 5 4 3 3 4 4 4 4 5 5 5 3 3 2 3 3 4 4 6 6 7 11 40 74 98 100
32 27 22 13 11 11 10 7 5 7 10 10 10 12 9 6 4 4 3 2 2 3 3 4 4 5 5 5 4 4 3 4 4 5 5 6 7 8 11 25 62 100 100
24 23 18 13 13 11 9 6 7 10 12 10 13 11 7 6 4 3 2 2 2 2 3 4 4 5 6 6 4 5 4 5 6 6 7 6 8 11 13 16 40 80 100
22 22 14 14 12 11 7 7 8 14 10 13 12 9 6 5 3 3 3 3 2 2 3 4 5 5 6 6 5 5 6 6 6 7 8 9 9 12 14 16 20 50 91
24 19 14 14 12 8 7 8 14 11 13 14 10 6 5 4 3 3 3 3 3 3 3 4 6 6 6 7 6 6 6 7 7 8 8 10 13 15 17 18 18 28 70
25 15 14 13 12 7 8 15 13 14 16 12 8 5 5 3 3 3 3 3 3 3 3 4 6 6 7 8 7 6 7 8 8 9 9 11 14 17 18 19 18 20 34
18 15 14 13 9 9 15 16 12 15 15 10 6 6 4 3 3 3 3 3 3 3 3 4 6 7 7 8 8 7 8 9 10 10 12 14 16 17 18 18 17 18 22
16 15 14 12 9 14 19 13 18 19 16 9 7 6 4 3 3 4 4 3 3 3 4 4 6 8 8 8 9 8 9 10 11 11 12 14 17 18 18 18 17 18 19
16 14 14 10 14 23 16 20 24 20 14 9 9 7 4 4 4 4 4 4 3 3 4 4 6 8 8 9 10 9 8 11 11 12 13 16 18 19 19 18 18 20 22
16 15 12 12 23 22 20 29 27 21 14 10 9 7 4 4 4 4 5 5 3 3 4 4 5 7 8 9 11 10 9 10 13 12 14 16 19 21 21 19 18 20 21
15 14 11 22 27 19 30 32 28 20 14 11 9 8 5 5 5 5 5 4 5 4 4 4 5 7 8 10 11 12 11 10 10 14 13 15 17 22 23 22 20 19 22
14 12 19 29 24 28 37 34 28 21 17 13 11 8 5 4 5 6 6 6 6 5 4 4 4 6 8 10 10 13 12 11 10 10 13 14 15 17 20 24 24 22 21
13 18 30 31 25 40 40 34 28 23 19 14 10 9 8 5 6 7 6 6 6 6 4 4 4 5 7 9 10 11 14 13 12 12 10 12 14 15 16 20 22 25 24
18 25 30 25 37 44 42 35 30 26 22 17 13 10 9 7 5 6 7 7 6 6 6 5 5 5 6 7 10 10 11 14 13 12 13 11 12 12 14 15 17 21 24
21 23 26 30 46 47 42 39 35 32 27 22 16 12 10 9 6 5 6 7 6 6 6 6 6 5 6 6 7 9 10 11 14 14 12 12 12 12 12 13 14 16 18
18 20 26 44 48 49 46 43 41 38 33 27 22 16 12 10 10 7 5 7 8 7 6 6 7 7 6 6 6 7 9 10 11 13 15 15 13 13 13 12 13 13 14
16 26 42 48 49 52 51 47 46 43 42 36 29 22 16 14 11 10 9 6 7 8 8 7 7 7 7 7 6 6 7 8 9 11 11 13 14 14 14 14 14 13 14
33 42 48 48 51 56 53 48 48 47 48 46 41 34 28 21 17 13 12 12 8 6 8 9 8 8 8 8 7 8 8 7 7 8 9 10 11 13 14 14 13 13 14
41 48 49 52 55 57 53 52 52 52 52 52 50 48 43 36 28 22 17 14 13 11 9 7 8 9 9 9 10 9 8 8 8 8 7 7 8 9 10 11 13 14 14
Wind_Speed
145 149 142 141 143 148 151 141 128 115 103 96 89 76 63 56 56 54 55 53 47 40 33 29 27 25 25 23 25 30 38 52 59 72 78 87 97 111 118 126 138 134 133
147 150 141 141 147 151 149 135 124 112 101 95 84 70 59 59 57 57 57 52 46 39 32 25 23 26 22 21 23 27 36 48 53 66 75 84 94 109 116 126 135 136 134
150 142 142 143 148 153 143 129 119 108 99 91 79 64 60 59 61 60 56 49 44 39 33 25 21 24 20 19 22 25 35 45 51 60 72 81 90 106 116 121 136 137 141
143 142 143 148 150 148 136 124 113 103 97 85 71 64 60 61 62 58 53 45 38 36 33 26 19 22 19 17 21 23 33 42 49 55 69 77 85 98 115 123 135 133 133
145 143 143 149 153 142 129 118 107 99 91 78 67 62 62 61 59 56 50 43 36 32 31 24 18 19 17 16 20 22 30 39 44 53 65 75 82 96 112 123 119 129 131
143 144 145 146 149 134 121 112 102 96 84 71 65 65 63 58 56 53 47 36 31 29 27 21 17 16 15 14 19 21 28 36 41 51 62 71 79 93 105 117 120 130 129
142 146 148 149 140 125 115 105 99 89 75 68 67 66 63 58 52 47 44 34 28 25 23 17 15 12 13 13 18 21 25 32 40 48 57 65 73 84 100 116 128 126 126
144 147 147 144 130 118 108 101 93 80 71 69 68 65 62 58 49 41 39 32 25 21 18 14 11 9 11 14 18 21 25 31 39 45 53 61 70 77 89 111 128 127 125
144 146 146 135 122 112 102 97 84 74 69 69 66 63 59 55 47 40 35 29 22 17 13 11 7 9 11 15 20 23 27 31 38 44 53 62 72 75 83 107 126 134 132
145 146 139 126 116 105 98 89 77 70 70 66 63 58 54 51 45 37 31 25 19 14 9 7 6 10 12 17 21 24 28 32 38 45 48 55 66 72 79 92 114 128 131
143 142 129 118 109 100 92 79 70 69 66 63 58 54 50 46 41 34 28 21 17 11 7 5 6 11 13 18 22 26 30 34 38 45 51 57 63 68 74 85 99 113 126
143 132 120 111 101 94 83 72 69 67 64 60 54 49 44 41 37 30 27 21 15 10 4 3 7 12 15 19 24 27 30 36 40 46 52 59 61 65 74 80 89 102 116
134 120 112 104 96 86 73 68 68 64 61 57 52 47 42 36 32 28 21 18 13 9 3 2 7 13 15 20 25 28 31 36 39 45 53 59 63 64 70 78 83 92 108
120 111 104 96 87 75 68 69 64 61 58 54 48 46 42 35 29 25 21 17 13 8 3 5 8 13 16 20 24 28 32 37 39 44 51 56 59 63 68 74 79 85 97
109 103 94 89 78 68 67 64 62 61 57 53 51 47 41 35 31 27 22 17 13 8 4 6 10 13 15 19 23 28 33 37 41 43 47 53 57 61 66 73 78 83 89
101 94 86 79 66 64 65 62 60 58 53 50 49 45 39 33 29 24 20 17 12 8 4 6 10 13 15 18 23 27 33 37 42 43 44 48 55 58 62 70 76 80 87
92 84 79 67 58 61 56 58 57 55 52 49 47 42 36 31 27 24 19 14 10 7 4 6 11 13 15 18 22 25 30 37 40 45 47 48 49 55 60 65 73 78 84
81 77 68 55 56 54 53 53 51 50 49 48 46 43 36 30 27 24 21 19 16 9 4 5 10 13 15 18 20 24 27 33 39 43 47 50 52 54 57 61 68 76 81
72 67 53 51 53 48 49 47 46 46 45 43 43 40 33 28 25 23 21 17 13 9 6 5 9 13 15 17 20 22 25 29 35 41 45 48 52 54 57 59 62 69 78
62 53 47 48 44 43 43 43 42 43 43 41 41 39 36 30 26 22 19 16 13 11 7 6 7 11 14 15 18 21 24 26 30 36 42 47 50 53 57 59 61 64 71
49 44 43 41 36 36 36 37 39 41 43 42 41 39 36 31 26 23 21 18 15 13 10 8 6 7 11 14 16 19 21 24 27 31 36 41 46 50 54 58 61 65 68
40 37 34 29 29 29 31 34 37 39 42 41 40 39 37 33 27 24 22 20 18 15 12 10 8 7 7 9 13 16 19 22 24 27 30 34 38 43 47 51 57 61 65
30 27 22 22 22 24 27 32 35 37 39 41 40 39 39 37 34 28 24 22 20 18 15 13 10 8 7 6 7 11 15 18 21 23 26 28 31 36 40 46 50 54 60
21 16 15 15 17 21 25 29 33 36 40 41 42 42 41 41 39 34 29 26 23 20 18 15 13 11 8 6 5 6 8 12 16 19 21 25 29 32 35 40 44 49 52
13 12 11 12 15 18 23 27 31 35 39 42 43 44 45 44 43 41 38 33 28 24 21 19 17 14 11 8 6 4 4 6 9 13 16 20 23 26 29 34 37 42 47
14 9 9 11 14 17 21 25 30 35 38 40 43 46 47 47 47 46 44 41 37 33 28 25 22 19 17 14 11 8 5 2 2 5 9 13 17 21 25 28 31 35 39
Wind_Direction
334 334 334 335 336 337 336 335 334 334 334 333 332 329 326 322 318 315 314 314 312 308 303 298 288 280 266 261 241 231 220 221 215 211 209 207 204 205 205 204 203 204 203
333 333 334 334 336 336 335 335 334 334 334 333 331 328 326 322 319 317 316 314 312 309 304 294 283 280 265 258 243 228 219 219 214 209 209 207 203 204 206 205 205 205 204
332 333 333 335 335 335 335 335 334 334 333 333 331 329 327 324 319 317 315 314 311 308 303 294 280 277 265 255 240 226 218 218 212 207 207 207 204 203 205 205 206 205 206
333 333 333 335 335 334 334 333 333 333 333 332 331 330 327 323 320 318 316 315 311 303 298 293 281 274 262 248 237 225 216 215 211 205 205 206 204 201 204 206 209 211 208
331 332 334 335 334 334 333 332 332 333 332 332 331 329 327 325 323 321 319 317 312 302 294 292 282 273 259 242 233 223 215 212 206 202 202 204 204 201 205 207 209 210 209
332 332 334 333 334 333 332 332 332 333 332 332 332 331 329 329 326 324 322 321 313 302 296 293 278 271 253 235 227 218 210 205 201 198 200 201 203 202 203 207 209 211 212
332 333 334 334 332 332 332 332 333 333 334 334 334 332 331 330 330 327 323 326 315 304 297 293 274 264 243 223 218 209 201 195 193 194 197 199 201 201 203 204 208 210 209
331 333 333 332 332 332 332 333 333 334 335 336 335 333 331 331 333 332 327 327 319 309 300 289 272 247 231 212 208 200 191 186 187 191 191 194 198 200 203 203 207 206 204
331 333 332 331 331 332 333 333 334 335 337 337 336 334 332 332 334 338 333 331 325 316 302 287 259 227 213 204 201 195 187 184 186 188 190 190 195 198 200 203 205 207 206
331 331 331 331 331 332 333 333 335 337 337 337 335 334 334 333 336 341 338 333 331 323 306 280 234 211 200 194 196 190 184 184 186 186 190 193 190 196 199 202 205 208 208
331 332 330 330 331 332 333 333 336 338 337 337 336 336 337 336 339 344 341 343 337 334 312 273 214 203 192 190 191 187 183 182 185 186 185 189 193 194 198 202 206 207 208
331 330 329 329 331 332 333 335 337 338 338 337 338 339 342 342 341 348 342 347 345 344 325 245 202 198 190 187 188 186 185 181 183 185 186 186 191 194 197 202 205 207 208
330 328 328 329 331 332 334 336 338 338 338 340 342 344 348 348 347 349 348 346 354 358 11 171 187 193 190 188 186 187 185 180 183 187 188 189 189 193 198 200 202 205 208
328 328 328 329 331 332 335 336 338 339 341 343 345 350 351 351 355 354 360 1 2 13 46 145 173 188 190 187 186 186 185 182 183 188 190 191 192 194 196 199 201 204 207
327 327 327 329 331 332 335 337 340 341 344 347 351 352 353 353 357 1 4 2 6 18 62 145 163 180 190 186 187 185 187 187 186 189 192 193 194 197 198 200 202 204 206
325 325 327 328 331 333 336 339 341 343 345 352 353 354 355 358 357 2 4 3 11 22 66 144 161 174 185 189 189 189 189 191 190 190 193 196 198 200 202 202 203 206 207
324 324 326 328 331 335 337 340 341 345 348 354 356 357 359 360 1 5 13 18 16 31 71 143 160 170 181 188 189 191 192 191 194 194 194 198 201 203 205 206 207 208 209
322 323 325 328 332 336 339 341 345 347 351 355 358 1 2 4 5 6 10 21 25 29 62 132 160 168 176 184 190 192 194 196 196 198 198 198 201 204 207 209 210 211 212
320 321 325 329 334 337 340 344 348 352 355 359 360 2 6 11 12 13 15 17 19 27 57 119 154 168 174 182 188 193 196 198 200 201 202 203 203 205 207 210 212 214 215
317 320 324 329 333 337 342 347 352 356 0 4 7 10 11 12 15 18 21 23 27 38 56 89 139 164 174 180 185 191 196 199 202 205 206 206 207 208 208 210 213 214 216
313 316 321 328 333 340 347 354 360 5 9 9 11 14 17 18 19 25 30 30 33 38 50 74 104 145 169 179 187 192 197 201 204 206 209 211 212 212 212 212 214 215 217
310 314 319 328 336 347 356 2 9 13 16 18 18 20 22 25 28 30 33 37 40 42 47 56 80 107 145 174 185 194 199 203 207 210 211 215 216 218 218 219 219 219 221
310 314 323 335 347 359 6 12 16 20 21 25 25 26 28 31 34 35 39 42 45 47 50 53 60 76 105 143 177 194 200 207 210 211 214 216 219 222 223 224 224 224 225
317 326 338 348 6 13 19 22 23 26 29 30 32 33 34 36 38 40 43 46 47 50 54 58 61 63 68 89 135 173 202 209 211 217 220 220 220 220 223 227 229 230 231
343 350 350 10 24 28 27 29 33 35 36 37 38 39 40 41 43 44 47 49 50 53 56 60 63 64 67 71 81 109 158 196 216 222 223 224 225 227 229 229 229 231 233
348 354 6 29 36 38 41 43 43 43 43 43 44 45 45 46 47 49 50 52 53 55 58 60 62 64 65 67 71 77 84 111 186 211 223 230 233 233 233 233 234 235 236